CW3352 Vejle DK current weather conditions

sailwx.info

Wind from 212

Air temperature 15.6° C
Dewpoint 11.7° C

Last reported at 2019-Aug-21 18:52 UTC.
Time now 2019-Aug-21 19:57 UTC

Location: N 55°43' E 009°40'.
View on Google Maps.

See reports from other nearby stations

  
Tides and Currents Weather Stations Pressure Air Temp Water Temp Dewpoint Dewpoint Depression Visibility Wind Speed Wind Dir Waves Ship Positions
date/time (UTC)wind fromknots sea level pressurealtimeterstation pressurevisibilityair tempwater tempwave heightnotes
2019-Aug-21 18:52 212 15.6
2019-Aug-21 18:21 212 16.1
2019-Aug-21 18:02 212 16.7
2019-Aug-21 17:52 208 17.2
2019-Aug-21 17:31 216 17.2
2019-Aug-21 17:21 208 17.8
2019-Aug-21 17:12 208 2 gusting 4 17.8
2019-Aug-21 17:02 208 0 gusting 4 17.8
2019-Aug-21 16:52 208 17.8
2019-Aug-21 16:32 208 17.8
2019-Aug-21 16:12 208 18.3
2019-Aug-21 16:02 204 18.3
2019-Aug-21 15:52 203 0 gusting 6 18.9
2019-Aug-21 15:32 215 18.3
2019-Aug-21 15:21 213 0 gusting 3 18.9
2019-Aug-21 15:12 213 1 gusting 2 19.4
2019-Aug-21 14:52 205 1 gusting 5 20.0
2019-Aug-21 14:42 210 2 gusting 6 20.0
2019-Aug-21 14:32 204 20.0
2019-Aug-21 14:21 196 0 gusting 6 20.0
2019-Aug-21 13:52 322 0 gusting 6 18.9
2019-Aug-21 13:32 246 19.4
2019-Aug-21 13:21 292 0 gusting 7 20.0
2019-Aug-21 12:32 206 0 gusting 5 18.3
2019-Aug-21 12:21 294 0 gusting 6 18.9
2019-Aug-21 12:02 263 18.3
2019-Aug-21 11:52 203 1 gusting 8 18.9
2019-Aug-21 11:32 218 0 gusting 4 18.3
2019-Aug-21 11:22 306 0 gusting 4 18.9
2019-Aug-21 11:12 296 18.3
2019-Aug-21 11:02 205 1 gusting 5 18.3
2019-Aug-21 10:52 217 0 gusting 6 17.8
2019-Aug-21 10:42 237 3 gusting 6 17.8
2019-Aug-21 10:32 036 17.2
2019-Aug-21 10:21 207 16.7
2019-Aug-21 09:52 242 1 gusting 3 17.2
2019-Aug-21 09:42 240 0 gusting 3 16.7
2019-Aug-21 09:22 320 0 gusting 4 16.1
2019-Aug-21 09:12 283 0 gusting 1 15.6
2019-Aug-21 08:52 290 14.4
2019-Aug-21 08:32 308 3 gusting 7 15.6
2019-Aug-21 08:12 259 3 gusting 6 16.1
2019-Aug-21 08:02 329 16.1
2019-Aug-21 07:52 318 0 gusting 4 16.1
2019-Aug-21 07:32 292 15.6
2019-Aug-21 07:02 328 0 gusting 3 15.0
2019-Aug-21 05:22 287 12.8
2019-Aug-21 04:42 287 11.7
2019-Aug-21 04:32 287 11.7
2019-Aug-21 04:12 287 11.7
2019-Aug-21 04:02 287 11.7
2019-Aug-21 03:52 287 11.7
2019-Aug-21 03:42 287 12.2
2019-Aug-21 03:32 287 12.2
2019-Aug-21 03:02 287 12.8
2019-Aug-21 02:42 287 12.8
2019-Aug-21 02:02 287 12.8
2019-Aug-20 01:42 143 13.3
2019-Aug-20 01:22 143 13.3
2019-Aug-20 01:02 143 13.3
2019-Aug-20 00:52 178 13.3
2019-Aug-20 00:42 178 13.3
2019-Aug-20 00:32 198 13.3
2019-Aug-20 00:22 198 13.3
2019-Aug-19 23:52 176 13.3
2019-Aug-19 23:42 176 13.3
2019-Aug-19 23:32 176 13.3
2019-Aug-19 23:22 175 13.3
2019-Aug-19 23:12 175 13.3
2019-Aug-19 22:42 204 13.9
2019-Aug-19 22:32 204 13.9
2019-Aug-19 22:22 204 13.9
2019-Aug-19 22:12 204 13.9
2019-Aug-19 22:02 204 13.9
2019-Aug-19 21:52 204 13.9
2019-Aug-19 21:42 204 13.9
2019-Aug-19 21:32 204 14.4
2019-Aug-19 21:21 147 14.4
2019-Aug-19 20:21 157 14.4
2019-Aug-19 20:12 157 14.4
2019-Aug-19 20:02 157 14.4
2019-Aug-19 19:52 157 14.4
2019-Aug-19 19:32 157 14.4
2019-Aug-19 19:12 157 14.4